Total_Precipitation_Accumulation
0.00 0.00 0.00 0.01 0.02 0.02 0.06 0.07 0.13 0.17 0.22 0.19 0.21 0.22 0.30 0.39 0.55 1.07 0.64 0.32 0.20 0.11 0.06 0.06 0.06 0.06 0.07 0.08 0.10 0.11 0.11 0.11 0.11 0.11 0.12 0.12 0.12 0.12 0.11 0.12 0.14 0.20 0.24 0.22 0.21 0.21 0.22 0.19 0.13
0.00 0.00 0.00 0.01 0.02 0.04 0.09 0.09 0.14 0.18 0.21 0.20 0.19 0.21 0.26 0.31 0.23 0.18 0.20 0.21 0.21 0.11 0.06 0.04 0.06 0.06 0.06 0.07 0.10 0.12 0.13 0.11 0.11 0.11 0.12 0.12 0.12 0.11 0.12 0.13 0.16 0.23 0.27 0.27 0.26 0.25 0.22 0.18 0.13
0.00 0.00 0.00 0.01 0.01 0.04 0.12 0.15 0.18 0.20 0.21 0.21 0.27 0.33 0.34 0.41 0.35 0.23 0.21 0.20 0.21 0.12 0.07 0.05 0.06 0.06 0.07 0.07 0.09 0.12 0.13 0.12 0.12 0.12 0.12 0.12 0.12 0.12 0.14 0.16 0.17 0.20 0.25 0.24 0.19 0.17 0.16 0.16 0.13
0.00 0.00 0.00 0.01 0.01 0.05 0.10 0.18 0.24 0.22 0.24 0.26 0.32 0.44 0.41 0.42 0.36 0.30 0.25 0.25 0.21 0.15 0.08 0.05 0.07 0.07 0.09 0.10 0.11 0.13 0.13 0.13 0.14 0.15 0.16 0.17 0.16 0.15 0.18 0.22 0.23 0.22 0.22 0.20 0.17 0.16 0.15 0.16 0.13
0.00 0.00 0.01 0.01 0.02 0.06 0.10 0.18 0.30 0.32 0.33 0.33 0.40 0.59 0.67 0.62 0.61 0.54 0.34 0.30 0.31 0.20 0.13 0.08 0.08 0.10 0.13 0.16 0.19 0.21 0.20 0.19 0.20 0.21 0.22 0.22 0.21 0.21 0.22 0.24 0.25 0.23 0.24 0.21 0.19 0.20 0.18 0.16 0.15
0.00 0.00 0.01 0.02 0.02 0.06 0.10 0.20 0.25 0.28 0.29 0.28 0.44 0.75 1.09 1.01 0.79 0.83 0.67 0.43 0.38 0.26 0.17 0.14 0.12 0.16 0.21 0.24 0.27 0.29 0.27 0.25 0.24 0.26 0.27 0.24 0.21 0.21 0.21 0.21 0.22 0.24 0.27 0.27 0.21 0.15 0.12 0.11 0.13
0.00 0.00 0.01 0.02 0.05 0.08 0.14 0.19 0.26 0.24 0.24 0.38 0.66 1.00 1.32 1.25 0.99 0.92 0.88 0.64 0.57 0.42 0.26 0.21 0.18 0.19 0.26 0.34 0.32 0.29 0.27 0.27 0.28 0.33 0.35 0.30 0.25 0.21 0.20 0.23 0.24 0.25 0.25 0.22 0.15 0.11 0.09 0.09 0.10
0.00 0.00 0.00 0.01 0.05 0.10 0.15 0.23 0.27 0.23 0.32 0.52 0.82 0.98 1.23 1.33 1.11 0.89 0.83 0.72 0.66 0.62 0.45 0.38 0.37 0.34 0.34 0.35 0.36 0.33 0.31 0.32 0.33 0.33 0.32 0.28 0.23 0.22 0.22 0.22 0.22 0.21 0.22 0.21 0.18 0.15 0.14 0.14 0.13
0.00 0.00 0.00 0.02 0.06 0.14 0.18 0.20 0.21 0.23 0.33 0.54 0.67 0.71 1.00 1.15 1.02 0.98 0.94 0.83 0.75 0.69 0.68 0.67 0.57 0.52 0.49 0.42 0.36 0.38 0.33 0.33 0.33 0.31 0.27 0.27 0.32 0.40 0.38 0.31 0.30 0.31 0.31 0.29 0.26 0.24 0.22 0.20 0.18
0.00 0.00 0.01 0.03 0.07 0.13 0.18 0.21 0.20 0.22 0.25 0.40 0.60 0.71 0.78 0.97 1.09 1.15 1.16 1.06 0.99 0.95 0.99 0.99 0.90 0.78 0.69 0.63 0.64 0.63 0.56 0.50 0.45 0.50 0.43 0.43 0.69 0.78 0.67 0.69 0.60 0.55 0.48 0.40 0.39 0.36 0.31 0.29 0.29
0.01 0.02 0.02 0.02 0.05 0.09 0.15 0.18 0.16 0.23 0.36 0.43 0.72 1.07 0.97 1.10 1.30 1.45 1.43 1.42 1.43 1.34 1.09 1.00 1.07 1.04 1.13 1.21 1.05 1.06 1.04 0.97 0.86 0.97 0.89 0.91 1.07 0.96 0.95 1.03 0.88 0.73 0.63 0.59 0.65 0.52 0.43 0.41 0.48
0.01 0.02 0.03 0.03 0.03 0.06 0.08 0.15 0.22 0.30 0.51 0.63 0.83 1.07 1.34 1.34 1.55 1.61 1.71 1.75 1.66 1.66 1.45 1.22 1.14 1.13 1.27 1.44 1.40 1.37 1.31 1.24 1.17 1.22 1.07 1.21 1.33 1.39 1.45 1.58 1.38 1.25 1.14 1.14 1.06 0.94 0.75 0.68 0.68
0.00 0.01 0.03 0.04 0.04 0.03 0.08 0.17 0.22 0.26 0.27 0.49 0.69 0.85 1.25 1.31 1.35 1.63 1.89 2.16 2.19 2.02 1.83 1.62 1.40 1.35 1.43 1.58 1.62 1.59 1.60 1.54 1.63 1.76 1.53 1.50 1.49 1.57 1.86 1.86 1.97 1.66 1.64 1.64 1.52 1.32 1.23 1.12 1.00
0.00 0.01 0.02 0.03 0.04 0.05 0.10 0.15 0.19 0.16 0.16 0.27 0.42 0.63 0.90 1.10 1.36 1.79 2.13 2.38 2.72 2.54 2.19 1.97 1.84 1.64 1.53 1.56 1.67 1.70 1.68 1.82 1.92 2.06 1.93 1.88 1.94 2.06 2.39 2.43 2.35 2.11 2.12 2.28 2.27 2.04 1.82 1.64 1.55
0.01 0.01 0.01 0.02 0.03 0.04 0.08 0.17 0.19 0.20 0.20 0.24 0.32 0.50 0.72 1.12 1.39 1.91 2.34 2.59 2.91 2.68 2.59 2.41 2.26 2.13 1.83 1.69 1.79 1.90 1.82 1.87 1.92 2.14 2.27 2.26 2.31 2.55 2.60 2.83 2.77 2.59 2.52 2.49 2.46 2.61 2.56 2.16 1.87
0.01 0.01 0.02 0.03 0.03 0.04 0.06 0.18 0.21 0.19 0.19 0.24 0.33 0.53 0.76 1.06 1.36 1.62 1.94 2.28 2.76 2.83 2.59 2.57 2.31 2.16 2.18 2.09 2.19 2.27 2.35 2.41 2.34 2.41 2.68 2.76 2.79 2.85 2.87 2.86 2.86 2.81 2.77 2.99 3.05 2.95 2.85 2.70 2.41
0.02 0.01 0.02 0.03 0.03 0.04 0.05 0.15 0.25 0.18 0.17 0.24 0.33 0.58 0.96 1.08 1.29 1.37 1.63 1.91 2.31 2.38 2.42 2.48 2.42 2.27 2.25 2.42 2.70 2.84 3.02 3.20 3.32 3.30 3.48 3.45 3.27 3.22 3.32 3.35 3.42 3.28 3.32 3.29 3.11 3.30 3.20 3.05 2.79
0.01 0.02 0.02 0.02 0.03 0.04 0.05 0.11 0.26 0.30 0.31 0.35 0.40 0.56 0.87 1.01 1.37 1.57 1.67 1.75 2.11 2.26 2.40 2.52 2.64 2.73 2.69 2.71 2.88 3.24 3.39 3.55 3.91 4.00 4.01 4.04 4.06 4.00 4.02 3.95 3.94 3.82 3.72 3.59 3.48 3.44 3.22 3.05 2.79
0.01 0.01 0.02 0.03 0.03 0.05 0.09 0.17 0.26 0.32 0.37 0.49 0.63 0.69 0.75 0.92 1.34 1.75 1.92 2.04 2.33 2.49 2.64 2.58 2.70 2.94 3.13 3.46 3.41 3.54 3.90 4.25 4.42 4.61 4.63 4.58 4.48 4.47 4.33 4.23 4.26 4.09 3.94 3.73 3.58 3.45 3.33 3.01 2.76
0.01 0.01 0.02 0.04 0.05 0.07 0.14 0.24 0.29 0.34 0.40 0.50 0.64 0.70 0.71 0.91 1.23 1.66 1.87 2.19 2.39 2.49 2.71 2.81 2.89 3.24 3.71 4.23 4.67 5.01 5.36 5.37 5.50 5.49 5.39 5.13 4.96 4.82 4.62 4.60 4.47 4.22 4.04 3.80 3.57 3.44 3.38 3.10 2.91
0.01 0.01 0.02 0.03 0.07 0.10 0.15 0.32 0.41 0.46 0.53 0.58 0.67 0.74 0.83 1.03 1.32 1.52 1.75 2.02 2.27 2.48 2.71 2.90 3.22 3.79 4.60 5.09 5.48 5.97 6.29 6.07 5.86 5.60 5.48 5.36 5.28 5.20 5.01 4.89 4.57 4.31 4.04 3.74 3.45 3.27 3.20 3.11 3.00
0.02 0.02 0.02 0.04 0.06 0.13 0.15 0.38 0.61 0.67 0.76 0.72 0.82 0.95 1.09 1.20 1.33 1.50 1.69 1.96 2.27 2.61 2.74 2.94 3.49 4.18 4.83 5.34 5.93 6.48 6.72 6.78 6.62 6.10 5.62 5.19 4.85 4.60 4.45 4.37 4.16 3.90 3.60 3.39 3.14 2.96 2.86 2.95 2.84
0.02 0.01 0.01 0.04 0.07 0.10 0.14 0.33 0.74 0.96 1.05 1.03 1.10 1.12 1.15 1.17 1.28 1.45 1.65 1.82 1.97 2.26 2.70 3.05 3.63 4.28 4.91 5.59 6.30 6.74 6.97 6.99 6.61 5.84 5.09 4.58 4.23 3.87 3.61 3.48 3.37 3.19 2.99 2.80 2.72 2.69 2.59 2.55 2.47
0.01 0.01 0.02 0.05 0.08 0.14 0.14 0.30 0.84 1.21 1.42 1.42 1.32 1.29 1.25 1.16 1.17 1.25 1.46 1.59 1.88 2.15 2.48 2.98 3.32 3.92 4.60 5.16 5.68 5.85 6.03 6.01 5.64 5.20 4.72 4.30 3.74 3.21 2.83 2.63 2.52 2.41 2.29 2.26 2.26 2.26 2.23 2.20 2.18
0.01 0.03 0.11 0.21 0.26 0.25 0.18 0.38 0.90 1.24 1.26 1.25 1.24 1.32 1.30 1.13 1.14 1.35 1.61 1.56 1.82 2.10 2.43 2.84 3.24 3.59 4.07 4.56 5.02 5.27 5.46 5.37 4.91 4.46 4.03 3.57 3.06 2.62 2.27 2.07 2.01 1.95 1.90 1.87 1.91 1.93 1.89 1.86 1.89
0.02 0.04 0.19 0.35 0.39 0.41 0.39 0.69 1.12 1.16 1.07 1.03 1.02 1.08 1.19 1.20 1.18 1.25 1.41 1.50 1.75 1.96 2.20 2.54 2.87 3.20 3.38 3.57 3.93 4.20 4.41 4.30 3.96 3.47 2.99 2.68 2.41 2.13 1.91 1.75 1.67 1.56 1.46 1.43 1.51 1.57 1.62 1.57 1.62
0.03 0.06 0.13 0.15 0.21 0.41 0.74 1.02 1.37 1.33 1.22 1.13 1.01 1.01 1.11 1.08 1.05 1.13 1.26 1.40 1.60 1.89 2.22 2.46 2.56 2.71 2.87 3.01 3.08 3.12 3.25 3.18 2.95 2.66 2.35 2.07 1.79 1.57 1.44 1.33 1.25 1.19 1.13 1.16 1.25 1.30 1.25 1.26 1.33
0.05 0.06 0.09 0.16 0.37 0.58 0.85 1.32 1.65 1.79 1.69 1.56 1.25 1.14 1.08 1.10 1.09 1.10 1.19 1.32 1.42 1.51 1.82 2.10 2.15 2.24 2.31 2.35 2.39 2.41 2.41 2.29 2.20 2.05 1.88 1.63 1.46 1.30 1.18 1.06 1.00 0.99 0.97 0.96 0.95 1.01 1.02 1.00 1.05
0.07 0.09 0.12 0.19 0.28 0.56 0.94 1.52 1.75 2.03 2.11 1.95 1.62 1.44 1.38 1.33 1.24 1.19 1.21 1.22 1.29 1.36 1.48 1.71 1.90 1.90 1.96 2.04 1.99 1.89 1.91 1.85 1.80 1.72 1.63 1.52 1.45 1.34 1.19 1.04 0.99 0.97 0.92 0.86 0.86 0.86 0.85 0.90 0.92
0.09 0.12 0.19 0.34 0.36 0.41 0.84 1.71 2.03 2.15 2.11 1.87 1.67 1.52 1.46 1.35 1.20 1.13 1.10 1.04 1.09 1.20 1.29 1.41 1.58 1.60 1.59 1.63 1.66 1.69 1.69 1.66 1.57 1.45 1.34 1.22 1.12 1.02 0.94 0.86 0.85 0.83 0.80 0.79 0.78 0.74 0.72 0.72 0.74